Regional Weather Roundup
Issued by NWS

Home | Current Version | Previous Version | Graphics & Text | Print | Product List | Glossary On
Versions: 1 2 3 4 5 6 7 8 9 10 11 12 13 14 15 16 17 18 19 20 21 22 23 24 25 26 27 28 29 30 31 32 33 34 35 36 37 38 39 40 41 42 43 44 45 46 47 48 49 50
000
ASUS43 KLSX 251110
RWRMO

WEATHER SUMMARY FOR MISSOURI
NATIONAL WEATHER SERVICE SPRINGFIELD MO
500 AM CST SAT FEB 25 2017

NOTE: "FAIR" INDICATES FEW OR NO CLOUDS BELOW 12,000 FEET WITH NO
       SIGNIFICANT WEATHER AND/OR OBSTRUCTIONS TO VISIBILITY.
       CURRENT SKY AND/OR WEATHER CONDITIONS ARE NOT AVAILABLE FOR
       CHILLICOTHE AND FARMINGTON.

MOZ001>031-035>038-043-044-053-054-251200-
...NORTHERN AND WESTERN MISSOURI...

CITY           SKY/WX    TMP DP  RH WIND       PRES   REMARKS
KANSAS CTY INT PTCLDY    23  15  71 N15G22    30.09R WCI  10
KANSAS C DTWN  PTCLDY    26  15  63 N9        30.11R WCI  17
LEE`S SUMMIT   CLOUDY    26  17  68 N14       30.09R WCI  14
ST JOSEPH      CLEAR     21  16  81 NW9       30.11R WCI  11
CHILLICOTHE      N/A     22  14  71 NW9       30.07R WCI  12
KIRKSVILLE     MOCLDY    20  14  77 NW13      29.99R WCI   7

$$
MOZ066>068-077>081-088>096-101>105-251200-
...SOUTHWEST MISSOURI...

CITY           SKY/WX    TMP DP  RH WIND       PRES   REMARKS
SPRINGFIELD    PTCLDY    23  16  74 NW8       30.07S WCI  14
JOPLIN         PTCLDY    23  18  81 W7        30.14S WCI  15
BRANSON        CLEAR     25  16  68 NW10      30.09R WCI  15

$$
MOZ032>034-039>042-045>050-055>058-069>072-251200-
...CENTRAL MISSOURI...

CITY           SKY/WX    TMP DP  RH WIND       PRES   REMARKS
COLUMBIA       CLOUDY    27  17  66 NW13      30.02R WCI  16
JEFFERSON CITY CLOUDY    27  16  63 W18       30.04R WCI  14
ROLLA          CLOUDY    25  16  68 W15G24    30.00R WCI  13
SEDALIA        PTCLDY    25  16  68 NW12G22   30.08R WCI  14
WHITEMAN AFB   MOCLDY    26  15  64 NW13      30.07R WCI  14
WARRENSBURG    MOCLDY    28  18  64 NW8       30.09R WCI  20
OSAGE BEACH    PTCLDY    25  16  68 NW9G20    30.08R WCI  15

$$
MOZ051-052-059>065-251200-
...EAST CENTRAL MISSOURI...

CITY           SKY/WX    TMP DP  RH WIND       PRES   REMARKS
ST LOUIS INTL  FLURRIES  30  17  58 NW18G28   29.95R WCI  18
SPIRIT OF STL  CLOUDY    29  18  63 W17G26    29.97R WCI  17
ST CHARLES     CLOUDY    30  18  60 W23G29    29.95R WCI  17

$$
MOZ072>076-082>087-097>100-106>115-251200-
...SOUTH CENTRAL AND SOUTHEAST MISSOURI...

CITY           SKY/WX    TMP DP  RH WIND       PRES   REMARKS
CAPE GIRARDEAU CLEAR     30  19  63 NW10      29.97R WCI  21
FARMINGTON     CLOUDY    28  17  63 NW16G23   29.97R WCI  16
POPLAR BLUFF   CLEAR     33  19  56 NW10      30.00R WCI  25
WEST PLAINS    CLEAR     27  16  63 NW15G24   30.02R WCI  15

$$



USA.gov is the U.S. government's official web portal to all federal, state and local government web resources and services.